Flag for Germany Weather past 2 weeks in Stade, Lower Saxony, Germany

Now
61 °F

Passing clouds.


Feels Like: 61 °F
Forecast: 64 / 77 °F
Wind: 6 mph from Northeast

Location: Hamburg-Fuhlsbuettel

Current Time: Jul 24, 2014 at 4:20:56 AM

Latest Report: Jul 24, 2014 at 3:50 AM


Visibility: N/A

Pressure: 30.09 "Hg

Humidity: 94%

Dew point: 59 °F

Location of StadeLocation

Historic Weather in Stade — Graph

°F

Stade temperature yesterday

Maximum temperature yesterday: 81 °F (at 3:20 PM)
Minimum temperature yesterday: 61 °F (at 5:20 AM)
Average temperature yesterday: 70 °F

Past Weeks' High & Low Weather Summary

 TemperatureHumidityPressure
High88 °F (Jul 19, 2:20 PM)100% (Jul 9, 2:20 AM)30.18 "Hg (Jul 9, 2:20 AM)
Low52 °F (Jul 17, 4:20 AM)29% (Jul 19, 6:20 PM)29.59 "Hg (Jul 9, 2:50 PM)
Average70 °F70%29.95 "Hg
* Reported Jul 9 2:20 AM — Jul 24 2:50 AM, Stade, Weather by CustomWeather, © 2014

Note: Actual official high and low records may vary slightly from our data, if they occured in-between our weather recording intervals... More about our weather records

Advertising

Stade weather history for previous 24 hours

 ConditionsComfort  
Time TempWeatherWind HumidityBarometerVisibility
2:50 AM
Jul 24
63 °FPassing clouds.5 mph94%30.09 "HgN/A
2:20 AM63 °FClear.3 mph94%30.09 "Hg10 mi
1:50 AM63 °FClear.6 mph94%30.09 "Hg10 mi
1:20 AM64 °FPassing clouds.6 mph88%30.09 "HgN/A
12:50 AM64 °FPassing clouds.7 mph88%30.09 "HgN/A
12:20 AM64 °FPassing clouds.5 mph88%30.09 "HgN/A
11:50 PM
Jul 23
66 °FClear.8 mph78%30.09 "Hg10 mi
11:20 PM68 °FPassing clouds.7 mph69%30.12 "HgN/A
10:50 PM68 °FClear.8 mph69%30.09 "Hg10 mi
10:20 PM68 °FPassing clouds.7 mph64%30.12 "HgN/A
9:50 PM70 °FPassing clouds.7 mph60%30.12 "HgN/A
9:20 PM72 °FPassing clouds.7 mph57%30.09 "HgN/A
8:50 PM73 °FPassing clouds.9 mph50%30.09 "HgN/A
8:20 PM75 °FSunny.13 mph47%30.09 "Hg10 mi
7:50 PM75 °FPassing clouds.10 mph47%30.09 "HgN/A
7:20 PM77 °FPassing clouds.15 mph44%30.09 "HgN/A
6:50 PM77 °FPassing clouds.17 mph44%30.09 "HgN/A
6:20 PM79 °FPassing clouds.14 mph42%30.09 "HgN/A
5:50 PM79 °FPassing clouds.18 mph39%30.09 "HgN/A
5:20 PM79 °FPassing clouds.17 mph42%30.09 "HgN/A
4:50 PM79 °FPassing clouds.20 mph39%30.09 "HgN/A
4:20 PM81 °FPassing clouds.16 mph42%30.09 "HgN/A
3:50 PM79 °FPassing clouds.17 mph39%30.12 "HgN/A
3:20 PM81 °FPassing clouds.16 mph37%30.12 "HgN/A
6:20 AM63 °FPassing clouds.5 mph88%30.18 "HgN/A
5:50 AM61 °FPassing clouds.3 mph88%30.18 "HgN/A
5:20 AM61 °FPassing clouds.5 mph94%30.18 "HgN/A
4:50 AM63 °FClear.7 mph88%30.18 "Hg10 mi
4:20 AM63 °FClear.8 mph88%30.18 "Hg10 mi
Weather by CustomWeather, © 2014

See weather overviewHow to use our weather pages